This demonstration page uses our WeatherBlox Daily Observations layout. Learn more.

39.92423, -83.80882

Hourly Observations for August 12, 2017

Temp ( °F °C ) Dew Point ( °F °C ) Humidity (%) Winds ( mph kmh ) Pressure ( in mb ) Visibility ( mi km ) Precip ( " mm )
12:04 am 00:04 Cloudy with Nearby Thunderstorms 66 19 64 18 94 94 E 5 7 29.94 1014 9 14.48406 0 0
12:12 am 00:12 Cloudy with Nearby Thunderstorms 66 19 64 18 94 94 E 5 7 29.94 1014 7 11.26538 0.01 0.254
12:37 am 00:37 Cloudy with Nearby Thunderstorms 66 19 64 18 94 94 Calm 29.97 1015 8 12.87472 0.04 1.016
12:56 am 00:56 Cloudy with Nearby Thunderstorms 66 18.9 65 18.3 96 96 Calm 29.97 1015 6 9.65604 0.06 1.524
12:59 am 00:59 Cloudy with Nearby Thunderstorms 66 19 64 18 94 94 S 5 7 29.94 1014 6 9.65604 0.01 0.254
1:37 am 01:37 Cloudy with Nearby Thunderstorms 66 19 64 18 94 94 SE 6 9 29.94 1014 7 11.26538 0.01 0.254
1:56 am 01:56 Cloudy with Nearby Thunderstorms 66 18.9 65 18.3 96 96 SSE 3 6 29.96 1015 8 12.87472 0.01 0.254
2:03 am 02:03 Cloudy 66 19 64 18 94 94 S 3 6 29.94 1014 9 14.48406 0 0
2:17 am 02:17 Cloudy with Mist and Fog 66 19 64 18 94 94 Calm 29.94 1014 6 9.65604 0 0
2:24 am 02:24 Cloudy with Mist and Fog 66 19 66 19 100 100 Calm 29.94 1014 6 9.65604 0 0
2:40 am 02:40 Cloudy with Mist and Fog 66 19 64 18 94 94 Calm 29.94 1014 6 9.65604 0 0
2:56 am 02:56 Cloudy with Mist and Fog 66 18.9 65 18.3 96 96 Calm 29.96 1015 5 8.0467 0 0
3:18 am 03:18 Mostly Cloudy with Mist and Fog 64 18 64 18 100 100 Calm 29.94 1014 1.75 2.816345 0 0
3:26 am 03:26 Mostly Cloudy with Mist and Fog 64 18 64 18 100 100 Calm 29.94 1014 1 1.60934 0 0
3:31 am 03:31 Mostly Cloudy with Mist and Fog 64 18 64 18 100 100 Calm 29.94 1014 2 3.21868 0 0
3:35 am 03:35 Mostly Cloudy with Mist and Fog 64 18 64 18 100 100 WSW 3 6 29.94 1014 0.75 1.207005 0 0
3:42 am 03:42 Mostly Cloudy with Fog 64 18 64 18 100 100 Calm 29.94 1014 0.25 0.402335 0 0
3:56 am 03:56 Mostly Cloudy with Fog 65 18.3 64 17.8 97 97 NNW 3 6 29.96 1014 0.5 0.80467 0 0
4:16 am 04:16 Cloudy with Fog 64 18 64 18 100 100 WNW 3 6 29.94 1014 0.5 0.80467 0 0
4:43 am 04:43 Cloudy with Fog 64 18 64 18 100 100 WSW 3 6 29.94 1014 0.25 0.402335 0 0
4:56 am 04:56 Cloudy with Fog 65 18.3 65 18.3 100 100 W 3 6 29.96 1014 0.5 0.80467 0 0
5:10 am 05:10 Cloudy with Mist and Fog 64 18 64 18 100 100 WNW 5 7 29.94 1014 1 1.60934 0 0
5:19 am 05:19 Cloudy with Mist and Fog 64 18 64 18 100 100 WNW 5 7 29.94 1014 1.75 2.816345 0 0
5:28 am 05:28 Cloudy with Mist and Fog 64 18 64 18 100 100 WNW 6 9 29.94 1014 2.5 4.02335 0 0
5:32 am 05:32 Cloudy with Mist and Fog 64 18 64 18 100 100 WNW 6 9 29.94 1014 3 4.82802 0 0
5:56 am 05:56 Mostly Cloudy 64 17.8 63 17.2 96 96 NW 3 6 29.97 1015 7 11.26538 0 0
6:56 am 06:56 Sunny with Mist and Fog 62 16.7 60 15.6 93 93 NNW 5 7 29.97 1015 6 9.65604 0 0
7:56 am 07:56 Partly Cloudy with Mist and Fog 63 17.2 61 16.1 93 93 NW 7 11 30 1016 6 9.65604 0 0
8:56 am 08:56 Sunny 65 18.3 61 16.1 87 87 NNW 7 11 30 1016 10 16.0934 0 0
9:56 am 09:56 Sunny 68 20 61 16.1 78 78 undefined N/A 30 1016 9 14.48406 0 0
10:56 am 10:56 Sunny 71 21.7 60 15.6 68 68 N 8 13 30.01 1016 10 16.0934 0 0
11:56 am 11:56 Partly Cloudy 73 22.8 61 16.1 66 66 NW 9 15 30.01 1016 10 16.0934 0 0
12:24 pm 12:24 Mostly Cloudy 73 23 61 16 65 65 NW 8 13 30 1016 10 16.0934 0 0
12:35 pm 12:35 Partly Cloudy 73 23 63 17 69 69 NW 10 17 30 1016 10 16.0934 0 0
12:56 pm 12:56 Partly Cloudy 74 23.3 61 16.1 64 64 NNW 12 19 30.01 1016 10 16.0934 0 0
1:56 pm 13:56 Mostly Sunny 75 23.9 60 15.6 60 60 NNW 13 20 30.01 1016 10 16.0934 0 0
2:56 pm 14:56 Partly Cloudy 77 25 59 15 54 54 NNW 9 15 30.01 1016 10 16.0934 0 0
3:56 pm 15:56 Partly Cloudy 77 25 57 13.9 50 50 NNW 12 19 30 1016 10 16.0934 0 0
4:56 pm 16:56 Partly Cloudy 78 25.6 58 14.4 50 50 NW 9 15 29.98 1015 10 16.0934 0 0
5:56 pm 17:56 Partly Cloudy 75 23.9 58 14.4 55 55 NNW 7 11 29.98 1015 10 16.0934 0 0
6:56 pm 18:56 Mostly Sunny 76 24.4 59 15 56 56 NNW 7 11 29.99 1016 10 16.0934 0 0
7:56 pm 19:56 Sunny 72 22.2 59 15 64 64 NNW 6 9 29.99 1016 10 16.0934 0 0
8:56 pm 20:56 Clear 68 20 58 14.4 70 70 Calm 29.99 1016 10 16.0934 0 0
9:56 pm 21:56 Clear 63 17.2 58 14.4 84 84 W 3 6 30.01 1016 10 16.0934 0 0
10:56 pm 22:56 Clear 60 15.6 58 14.4 93 93 Calm 30.02 1017 10 16.0934 0 0
11:56 pm 23:56 Clear 61 16.1 57 13.9 87 87 Calm 30.02 1017 10 16.0934 0 0

Powered by AerisWeather